Regional Weather Roundup
Issued by NWS

Home | Current Version | Previous Version | Graphics & Text | Print | Product List | Glossary On
Versions: 1 2 3 4 5 6 7 8 9 10 11 12 13 14 15 16 17 18 19 20 21 22 23 24 25 26 27 28 29 30 31 32 33 34 35 36 37 38 39 40 41 42 43 44 45 46 47 48 49 50
000
ASUS43 KLMK 232002
RWRKY
KENTUCKY REGIONAL WEATHER ROUNDUP
NATIONAL WEATHER SERVICE LOUISVILLE KY
400 PM EDT TUE MAY 23 2017

NOTE "FAIR" INDICATES FEW OR NO CLOUDS BELOW 12,000 FEET
WITH NO SIGNIFICANT WEATHER AND/OR OBSTRUCTIONS TO VISIBILITY.

KYZ001>023-026-027-061>063-070>075-232100-
WESTERN AND SOUTH CENTRAL KENTUCKY

CITY           SKY/WX    TMP DP  RH WIND       PRES   REMARKS
PADUCAH        PTSUNNY   76  49  38 VRB7      29.70F
HENDERSON      PTSUNNY   76  48  37 NW6       29.69F
OWENSBORO      PTSUNNY   77  44  30 VRB3      29.69F
HOPKINSVILLE   NOT AVBL
BOWLING GREEN  MOSUNNY   77  56  48 W7        29.69F
GLASGOW        NOT AVBL
$$

KYZ024-025-028>034-038-045-046-053-232100-
NORTH CENTRAL KENTUCKY

CITY           SKY/WX    TMP DP  RH WIND       PRES   REMARKS
LOUISVILLE/SDF CLOUDY    77  54  44 CALM      29.68F
LOUISVILLE/LOU CLOUDY    77  56  48 NE5       29.69F
FORT KNOX      PTSUNNY   74  56  53 CALM      29.67F
$$

KYZ035>037-039>044-047>052-055>060-089>105-232100-
NORTHEAST KENTUCKY

CITY           SKY/WX    TMP DP  RH WIND       PRES   REMARKS
LEXINGTON      PTSUNNY   73  58  59 S7        29.70F
COVINGTON      CLOUDY    73  51  46 E5        29.71F
FRANKFORT      CLOUDY    74  57  55 CALM      29.68F
$$

KYZ054-064>069-076>088-106>120-232100-
SOUTHEAST KENTUCKY

CITY           SKY/WX    TMP DP  RH WIND       PRES   REMARKS
JACKSON        LGT RAIN  65  62  90 CALM      29.73F
LONDON         CLOUDY    69  60  73 E5        29.71F
SOMERSET       NOT AVBL
MIDDLESBORO    CLOUDY    68  62  82 CALM      29.72F
MONTICELLO     CLOUDY    72  60  66 SE6       29.72F
$$





USA.gov is the U.S. government's official web portal to all federal, state and local government web resources and services.